Location: Go?cza
(50.3372°N, 19.9313°E)
Time: 22:13:28
(UTC+00:00)

Cosmos 2082 Rocket - Pass Details

Date: 23 May 2024
Orbit: 832 x 853 km, 71.0° (Epoch: 22 June)

Event Time Altitude Azimuth Distance (km) Brightness Sun altitude
Exits shadow 01:48:39 - 263° (W) 3,306 4.8 -7.4°
Reaches altitude 10° 01:51:28 10° 279° (W) 2,488 4.3 -7.1°
Maximum altitude 01:55:32 20° 325° (NW) 1,904 4.2 -6.6°
Drops below altitude 10° 01:59:37 10° 11° (N) 2,492 5.6 -6.2°
Sets 02:02:48 0° 28° (NNE) 3,428 7.0 -5.8°
